Printer-friendly version

IAU Minor Planet Center

Minor Planet Center

MPEC 2007-V91 : 2007 VG184

The following Minor Planet Electronic Circular may be linked-to from your own Web pages, but must not otherwise be redistributed electronically.


Read MPEC 2007-V90 Read MPEC 2007-V92


M.P.E.C. 2007-V91                                Issued 2007 Nov. 13, 14:18 UT

     The Minor Planet Electronic Circulars contain information on unusual
         minor planets and routine data on comets.  They are published
   on behalf of Commission 20 of the International Astronomical Union by the
          Minor Planet Center, Smithsonian Astrophysical Observatory,
                          Cambridge, MA 02138, U.S.A.

             Prepared using the Tamkin Foundation Computer Network

                              MPC@CFA.HARVARD.EDU
          URL http://www.cfa.harvard.edu/iau/mpc.html  ISSN 1523-6714

                                  2007 VG184

Observations:
     K07VI4G* C2007 11 11.47672 21 33 27.43 -38 24 58.8          18.9 V EV091E12
     K07VI4G  C2007 11 11.48759 21 33 32.61 -38 24 45.2          18.8 V EV091E12
     K07VI4G  C2007 11 11.49844 21 33 37.80 -38 24 32.0          18.8 V EV091E12
     K07VI4G  C2007 11 11.50929 21 33 43.02 -38 24 18.2          19.0 V EV091E12
     K07VI4G  C2007 11 11.51723 21 33 46.80 -38 24 08.6          19.1 V EV091E12
     K07VI4G  C2007 11 11.51777 21 33 47.05 -38 24 08.5          18.3 V EV091E12
     K07VI4G  C2007 11 11.51837 21 33 47.37 -38 24 07.5          18.9 V EV091E12
     K07VI4G  C2007 11 11.51898 21 33 47.70 -38 24 06.5          18.7 V EV091E12
     K07VI4G  C2007 11 11.51994 21 33 48.09 -38 24 05.8          18.8 V EV091E12
     K07VI4G  C2007 11 11.52946 21 33 52.66 -38 23 53.3          18.7 V EV091E12
     K07VI4G  C2007 11 11.53894 21 33 57.20 -38 23 41.8          18.8 V EV091E12
     K07VI4G  C2007 11 11.55946 21 34 07.10 -38 23 16.0          19.0 V EV091E12
     K07VI4G  C2007 11 11.55999 21 34 07.28 -38 23 16.0          18.8 V EV091E12
     K07VI4G  C2007 11 11.56111 21 34 07.89 -38 23 14.4          18.9 V EV091E12
     K07VI4G  C2007 11 12.45440 21 41 13.63 -38 04 53.7          18.8 V EV091E12
     K07VI4G  C2007 11 12.45493 21 41 13.88 -38 04 52.6          18.9 V EV091E12
     K07VI4G  C2007 11 12.45546 21 41 14.10 -38 04 52.2          18.7 V EV091E12
     K07VI4G  C2007 11 12.45598 21 41 14.42 -38 04 51.4          18.8 V EV091E12
     K07VI4G  C2007 11 13.46185 21 49 00.91 -37 42 33.4          18.8 V EV091E12
     K07VI4G  C2007 11 13.47218 21 49 05.52 -37 42 18.9          18.8 V EV091E12
     K07VI4G  C2007 11 13.48249 21 49 10.20 -37 42 05.4          18.5 V EV091E12
     K07VI4G  C2007 11 13.49279 21 49 14.88 -37 41 50.6          18.5 V EV091E12
     K07VI4G  C2007 11 13.49861 21 49 17.98 -37 41 43.2          18.5 R EV091D21
     K07VI4G  C2007 11 13.50156 21 49 19.38 -37 41 40.3          18.5 R EV091D21
     K07VI4G  C2007 11 13.50449 21 49 20.64 -37 41 35.7          18.5 R EV091D21

Observer details:
D21 Shenton Park.  Observers P. Luckas, P. R. Holvorcem, M. Schwartz.
    Measurer P. R. Holvorcem.  0.35-m f/9.4 Schmidt-Cassegrain + CCD.
E12 Siding Spring Survey.  Observer G. J. Garradd.  Measurers E. C. Beshore,
    A. Boattini, G. J. Garradd, A. R. Gibbs, A. D. Grauer, R. E. Hill,
    R. A. Kowalski, S. M. Larson, R. H. McNaught.  0.5-m Uppsala Schmidt + CCD.

Orbital elements:
2007 VG184                                               Earth MOID = 0.1406 AU
Epoch 2007 Oct. 27.0 TT = JDT 2454400.5                 MPC
M  18.69930              (2000.0)            P               Q
n   0.44162285     Peri.  148.02095     +0.49150773     +0.86140190
a   1.7077922      Node   150.82369     -0.84409678     +0.50740604
e   0.5526168      Incl.   15.23320     -0.21429134     -0.02293193
P   2.23           H   17.5           G   0.15           U   9
Residuals in seconds of arc
071111 E12  0.2+  0.4-    071111 E12  0.2-  0.4+    071113 E12  0.4+  0.2+
071111 E12  0.1-  0.0     071111 E12  0.2-  0.1+    071113 E12  0.3-  0.2+
071111 E12  0.1-  0.1-    071111 E12  0.3+  0.5+    071113 E12  0.1-  0.9-
071111 E12  0.2+  0.3+    071111 E12  0.6-  0.1-    071113 E12  0.1+  0.7-
071111 E12  0.1-  0.2+    071111 E12  0.3+  0.1+    071113 D21  0.3-  1.0+
071111 E12  0.2-  0.4-    071112 E12  0.1-  0.2-    071113 D21  0.5+  0.2-
071111 E12  0.2+  0.2-    071112 E12  0.1-  0.2+    071113 D21  0.2-  0.3+
071111 E12  0.6+  0.1+    071112 E12  0.4-  0.1-
071111 E12  0.2-  0.4-    071112 E12  0.5+  0.1+

Ephemeris:
2007 VG184               a,e,i = 1.71, 0.55, 15                  q = 0.7640
Date    TT    R. A. (2000) Decl.     Delta      r     Elong.  Phase     V
2007 11 06    20 46.35   -39 42.0    0.541    1.050    80.7    68.7    18.7
2007 11 16    22 07.66   -36 40.1    0.603    1.136    87.6    60.4    18.8
2007 11 26    23 08.30   -31 41.9    0.693    1.223    91.8    53.7    19.1
2007 12 06    23 52.95   -26 23.1    0.804    1.310    93.6    48.6    19.4
2007 12 16    00 27.38   -21 21.6    0.930    1.395    93.5    44.8    19.8
2007 12 26    00 55.55   -16 48.0    1.069    1.478    92.0    41.7    20.1
2008 01 05    01 19.83   -12 42.4    1.217    1.558    89.5    39.1    20.4
2008 01 15    01 41.71   -09 02.0    1.373    1.635    86.2    36.9    20.8
2008 01 25    02 02.07   -05 44.1    1.534    1.710    82.4    34.8    21.0
2008 02 04    02 21.46   -02 46.1    1.699    1.781    78.2    32.8    21.3
2008 02 14    02 40.24   -00 05.9    1.865    1.849    73.7    30.8    21.5
2008 02 24    02 58.65   +02 18.1    2.032    1.914    68.9    28.9    21.7
2008 03 05    03 16.81   +04 27.1    2.196    1.975    64.1    26.8    21.9

Timothy B. Spahr             (C) Copyright 2007 MPC           M.P.E.C. 2007-V91

Read MPEC 2007-V90 Read MPEC 2007-V92


Our Web policy. Index to the CBAT/MPC/ICQ pages.


Valid HTML 4.01!